"1997/01/01",  8.0,  8.3,  7.8
"1997/01/02",  8.7,  9.1,  8.3
"1997/01/03",  8.6,  9.1,  8.3
"1997/01/04",  8.0,  8.4,  7.7
"1997/01/05",  7.5,  7.9,  7.2
"1997/01/06",  7.5,  7.8,  7.3
"1997/01/07",  7.4,  7.8,  7.1
"1997/01/08",  7.1,  7.4,  6.9
"1997/01/09",  6.9,  7.2,  6.7
"1997/01/10",  6.6,  7.0,  6.3
"1997/01/11",  6.3,  6.6,  6.0
"1997/01/12",  6.2,  6.4,  6.0
"1997/01/13",  6.2,  6.4,  6.0
"1997/01/14",  6.1,  6.4,  5.8
"1997/01/15",  6.2,  6.4,  6.0
"1997/01/16",  6.1,  6.4,  5.8
"1997/01/17",  5.7,  6.0,  5.4
"1997/01/18",  5.9,  6.3,  5.7
"1997/01/19",  6.1,  6.4,  5.9
"1997/01/20",  6.4,  6.7,  6.3
"1997/01/21",  6.4,  6.7,  6.1
"1997/01/22",  6.2,  6.6,  5.8
"1997/01/23",  5.5,  5.8,  5.3
"1997/01/24",  5.7,  6.1,  5.6
"1997/01/25",  6.0,  6.1,  5.9
"1997/01/26",  5.8,  6.1,  5.5
"1997/01/27",  5.7,  5.9,  5.4
"1997/01/28",  5.7,  5.9,  5.4
"1997/01/29",  5.8,  5.9,  5.6
"1997/01/30",  5.6,  5.9,  5.3
"1997/01/31",  5.2,  5.5,  4.9
"1997/02/01",  5.1,  5.4,  4.9
"1997/02/02",  5.2,  5.4,  5.0
"1997/02/03",  5.5,  5.7,  5.4
"1997/02/04"," * "," * "," * "
"1997/02/05"," * "," * "," * "
"1997/02/06"," * "," * "," * "
"1997/02/07"," * "," * "," * "
"1997/02/08"," * "," * "," * "
"1997/02/09"," * "," * "," * "
"1997/02/10"," * "," * "," * "
"1997/02/11"," * "," * "," * "
"1997/02/12"," * "," * "," * "
"1997/02/13",  6.5,  6.9,  6.2
"1997/02/14",  6.1,  6.5,  5.8
"1997/02/15",  6.0,  6.3,  5.8
"1997/02/16",  6.4,  6.6,  6.3
"1997/02/17",  6.5,  6.7,  6.3
"1997/02/18",  6.6,  6.8,  6.4
"1997/02/19",  6.5,  6.8,  6.3
"1997/02/20",  6.1,  6.4,  5.8
"1997/02/21",  6.2,  6.4,  6.0
"1997/02/22",  5.8,  6.3,  5.5
"1997/02/23",  5.3,  5.6,  5.1
"1997/02/24",  5.5,  6.0,  5.2
"1997/02/25",  5.9,  6.5,  5.6
"1997/02/26",  6.8,  7.5,  6.5
"1997/02/27",  7.5,  7.8,  7.3
"1997/02/28",  7.6,  7.9,  7.4
"1997/03/01",  8.2,  8.7,  7.8
"1997/03/02",  8.3,  8.7,  8.1
"1997/03/03",  7.9,  8.2,  7.7
"1997/03/04",  7.6,  7.9,  7.4
"1997/03/05",  7.8,  8.2,  7.4
"1997/03/06",  8.0,  8.3,  7.8
"1997/03/07",  8.6,  9.4,  8.3
"1997/03/08",  9.5,  9.7,  9.3
"1997/03/09",  9.4,  9.7,  9.1
"1997/03/10",  8.9,  9.4,  8.6
"1997/03/11",  9.2,  9.7,  9.0
"1997/03/12",  9.5,  9.8,  9.1
"1997/03/13",  9.5,  9.8,  9.2
"1997/03/14",  9.9, 10.4,  9.6
"1997/03/15", 10.2, 10.5,  9.9
"1997/03/16",  9.5,  9.9,  9.1
"1997/03/17",  8.8,  9.2,  8.5
"1997/03/18",  9.0,  9.4,  8.7
"1997/03/19",  9.3,  9.6,  9.1
"1997/03/20",  9.5,  9.9,  9.3
"1997/03/21",  9.7, 10.2,  9.4
"1997/03/22", 10.1, 10.2, 10.0
"1997/03/23",  9.8, 10.1,  9.5
"1997/03/24",  9.3,  9.5,  9.1
"1997/03/25",  9.1,  9.5,  8.7
"1997/03/26",  9.6, 10.2,  9.3
"1997/03/27", 10.2, 10.2, 10.1
"1997/03/28",  9.9, 10.5,  9.5
"1997/03/29", 10.5, 10.9, 10.3
"1997/03/30", 11.9, 12.9, 10.9
"1997/03/31", 12.4, 12.9, 12.1
"1997/04/01", 11.9, 12.3, 11.6
"1997/04/02", 12.1, 12.3, 11.9
"1997/04/03", 12.2, 12.3, 12.0
"1997/04/04", 12.0, 12.5, 11.7
"1997/04/05", 12.6, 12.7, 12.5
"1997/04/06", 12.6, 12.7, 12.5
"1997/04/07", 12.7, 12.9, 12.6
"1997/04/08", 13.0, 13.6, 12.7
"1997/04/09", 13.7, 14.2, 13.4
"1997/04/10", 14.0, 14.2, 13.8
"1997/04/11", 13.9, 14.2, 13.5
"1997/04/12", 13.8, 14.2, 13.5
"1997/04/13", 13.7, 14.1, 13.4
"1997/04/14", 13.9, 14.4, 13.6
"1997/04/15", 13.9, 14.4, 13.5
"1997/04/16", 13.3, 13.6, 13.0
"1997/04/17", 13.5, 13.8, 13.2
"1997/04/18", 13.6, 14.1, 13.3
"1997/04/19", 14.0, 14.2, 13.9
"1997/04/20", 14.0, 14.4, 13.7
"1997/04/21", 14.2, 14.4, 14.0
"1997/04/22", 14.4, 14.7, 14.2
"1997/04/23", 14.3, 14.7, 13.9
"1997/04/24", 13.6, 13.9, 13.2
"1997/04/25", 13.7, 14.2, 13.4
"1997/04/26", 14.0, 14.5, 13.6
"1997/04/27", 14.3, 14.8, 13.9
"1997/04/28", 14.6, 14.8, 14.5
"1997/04/29", 14.9, 15.7, 14.6
"1997/04/30", 15.7, 16.1, 15.4
"1997/05/01", 16.1, 16.6, 15.9
"1997/05/02", 16.4, 16.7, 16.1
"1997/05/03", 16.6, 16.8, 16.5
"1997/05/04", 16.2, 16.5, 16.0
"1997/05/05", 16.3, 17.1, 16.1
"1997/05/06", 17.0, 17.4, 16.8
"1997/05/07", 17.4, 17.8, 17.2
"1997/05/08", 17.7, 17.8, 17.5
"1997/05/09", 17.6, 17.8, 17.2
"1997/05/10", 16.7, 17.3, 16.4
"1997/05/11", 16.9, 17.3, 16.6
"1997/05/12", 17.2, 17.7, 16.9
"1997/05/13", 17.4, 17.6, 17.2
"1997/05/14", 17.3, 17.4, 17.2
"1997/05/15", 17.4, 17.6, 17.3
"1997/05/16", 17.9, 18.6, 17.6
"1997/05/17", 18.7, 18.9, 18.6
"1997/05/18", 18.7, 19.0, 18.5
"1997/05/19", 18.7, 19.0, 18.4
"1997/05/20", 18.1, 18.5, 17.8
"1997/05/21", 17.7, 18.2, 17.4
"1997/05/22", 17.9, 18.2, 17.6
"1997/05/23", 17.8, 18.1, 17.6
"1997/05/24", 17.5, 17.7, 17.4
"1997/05/25", 17.7, 18.4, 17.5
"1997/05/26", 18.4, 18.8, 18.1
"1997/05/27", 18.6, 18.9, 18.3
"1997/05/28", 18.7, 19.0, 18.4
"1997/05/29", 18.8, 19.0, 18.6
"1997/05/30", 18.9, 19.5, 18.6
"1997/05/31", 19.5, 19.9, 19.3
"1997/06/01", 19.9, 20.3, 19.6
"1997/06/02", 20.1, 20.3, 20.0
"1997/06/03", 20.2, 20.6, 19.9
"1997/06/04", 20.4, 20.6, 20.3
"1997/06/05", 20.2, 20.6, 19.9
"1997/06/06", 20.3, 20.6, 20.1
"1997/06/07", 19.8, 20.1, 19.5
"1997/06/08", 19.9, 20.2, 19.8
"1997/06/09", 19.5, 19.9, 19.3
"1997/06/10", 19.5, 20.2, 19.2
"1997/06/11", 20.1, 20.3, 19.7
"1997/06/12", 19.7, 20.3, 19.4
"1997/06/13", 20.3, 20.6, 20.1
"1997/06/14", 20.5, 20.8, 20.3
"1997/06/15", 20.6, 20.9, 20.4
"1997/06/16", 20.8, 21.1, 20.6
"1997/06/17", 20.8, 21.1, 20.6
"1997/06/18", 20.5, 20.7, 20.4
"1997/06/19", 20.5, 20.8, 20.3
"1997/06/20", 21.0, 21.3, 20.8
"1997/06/21", 21.4, 21.7, 21.2
"1997/06/22", 21.6, 21.7, 21.5
"1997/06/23", 21.5, 21.7, 21.4
"1997/06/24", 21.5, 22.1, 21.3
"1997/06/25", 22.0, 22.4, 21.8
"1997/06/26", 22.5, 22.9, 22.3
"1997/06/27", 22.9, 23.4, 22.6
"1997/06/28", 23.2, 23.4, 23.2
"1997/06/29", 23.0, 23.2, 22.9
"1997/06/30", 22.8, 23.1, 22.5
"1997/07/01", 22.8, 23.0, 22.7
"1997/07/02", 22.9, 23.1, 22.8
"1997/07/03", 23.1, 23.5, 22.9
"1997/07/04", 23.5, 23.9, 23.3
"1997/07/05", 23.8, 24.2, 23.6
"1997/07/06", 24.2, 24.5, 23.9
"1997/07/07", 24.3, 24.5, 24.1
"1997/07/08", 24.4, 24.7, 24.2
"1997/07/09", 24.5, 24.7, 24.3
"1997/07/10", 24.2, 24.7, 23.7
"1997/07/11", 23.3, 23.7, 23.1
"1997/07/12", 23.0, 23.1, 22.9
"1997/07/13", 22.9, 23.1, 22.7
"1997/07/14", 23.3, 23.7, 23.0
"1997/07/15", 23.7, 24.3, 23.4
"1997/07/16", 24.4, 25.0, 24.1
"1997/07/17", 24.6, 25.0, 24.1
"1997/07/18", 23.6, 24.1, 23.2
"1997/07/19", 23.5, 24.0, 23.1
"1997/07/20", 23.9, 24.4, 23.5
"1997/07/21", 24.3, 24.8, 23.9
"1997/07/22", 24.6, 25.0, 24.2
"1997/07/23", 24.7, 25.0, 24.5
"1997/07/24", 24.8, 25.2, 24.5
"1997/07/25", 25.0, 25.3, 24.7
"1997/07/26", 25.1, 25.3, 24.9
"1997/07/27", 25.0, 25.4, 24.8
"1997/07/28", 25.2, 25.4, 25.0
"1997/07/29", 25.2, 25.5, 25.0
"1997/07/30", 25.2, 25.5, 24.9
"1997/07/31", 24.7, 25.0, 24.5
"1997/08/01", 25.0, 25.6, 24.7
"1997/08/02", 25.6, 26.2, 25.3
"1997/08/03", 26.1, 26.6, 25.9
"1997/08/04", 26.4, 26.7, 26.1
"1997/08/05", 26.3, 26.7, 26.0
"1997/08/06", 25.8, 26.0, 25.6
"1997/08/07", 25.8, 26.2, 25.5
"1997/08/08", 25.9, 26.2, 25.7
"1997/08/09", 25.8, 26.1, 25.6
"1997/08/10", 26.0, 26.3, 25.8
"1997/08/11", 26.2, 26.3, 26.0
"1997/08/12", 26.0, 26.3, 25.9
"1997/08/13", 25.9, 26.2, 25.7
"1997/08/14", 25.9, 26.3, 25.4
"1997/08/15", 24.9, 25.4, 24.6
"1997/08/16", 24.2, 24.6, 24.0
"1997/08/17", 23.8, 24.0, 23.6
"1997/08/18", 23.9, 24.2, 23.7
"1997/08/19", 24.2, 24.6, 24.1
"1997/08/20", 24.4, 24.8, 24.2
"1997/08/21", 24.8, 25.1, 24.5
"1997/08/22"," * "," * "," * "
"1997/08/23", 25.1, 25.4, 24.9
"1997/08/24", 25.3, 25.6, 25.1
"1997/08/25", 25.3, 25.6, 25.1
"1997/08/26", 24.8, 25.2, 24.6
"1997/08/27", 24.4, 24.7, 24.2
"1997/08/28", 24.7, 25.0, 24.5
"1997/08/29", 24.9, 25.2, 24.7
"1997/08/30", 25.1, 25.4, 24.9
"1997/08/31", 25.2, 25.4, 25.0
"1997/09/01", 25.2, 25.5, 25.0
"1997/09/02", 25.4, 25.6, 25.2
"1997/09/03", 25.5, 25.7, 25.3
"1997/09/04", 25.6, 25.7, 25.5
"1997/09/05", 25.3, 25.6, 25.2
"1997/09/06", 25.0, 25.2, 24.8
"1997/09/07", 25.1, 25.3, 24.9
"1997/09/08", 25.0, 25.3, 24.5
"1997/09/09", 24.3, 24.5, 24.1
"1997/09/10", 24.2, 24.6, 24.0
"1997/09/11", 24.5, 24.8, 24.3
"1997/09/12", 24.6, 24.8, 24.5
"1997/09/13", 24.2, 24.6, 23.8
"1997/09/14", 23.5, 23.8, 23.4
"1997/09/15", 23.0, 23.4, 22.7
"1997/09/16", 22.3, 22.7, 22.1
"1997/09/17", 22.0, 22.5, 21.9
"1997/09/18", 22.6, 22.8, 22.5
"1997/09/19", 22.7, 22.8, 22.6
"1997/09/20", 22.5, 22.8, 22.3
"1997/09/21", 22.3, 22.6, 22.0
"1997/09/22", 22.0, 22.1, 21.9
"1997/09/23", 21.9, 22.1, 21.6
"1997/09/24", 21.4, 21.6, 21.2
"1997/09/25", 21.2, 21.4, 21.0
"1997/09/26", 21.0, 21.3, 20.8
"1997/09/27", 20.7, 20.8, 20.6
"1997/09/28", 20.6, 20.7, 20.4
"1997/09/29", 20.4, 20.7, 20.2
"1997/09/30", 20.4, 20.6, 20.2
"1997/10/01", 20.3, 20.6, 20.1
"1997/10/02", 20.1, 20.3, 19.9
"1997/10/03", 20.2, 20.4, 20.0
"1997/10/04", 20.2, 20.4, 20.1
"1997/10/05", 20.1, 20.2, 19.9
"1997/10/06", 20.2, 20.3, 20.1
"1997/10/07", 20.1, 20.3, 20.0
"1997/10/08", 20.0, 20.2, 19.8
"1997/10/09", 19.7, 20.2, 19.4
"1997/10/10", 19.4, 19.6, 19.3
"1997/10/11", 19.5, 19.7, 19.4
"1997/10/12", 19.5, 19.7, 19.3
"1997/10/13", 19.2, 19.5, 19.0
"1997/10/14", 18.7, 19.1, 18.5
"1997/10/15", 18.5, 18.7, 18.3
"1997/10/16", 18.3, 18.6, 18.1
"1997/10/17", 18.2, 18.3, 18.1
"1997/10/18", 18.2, 18.3, 18.0
"1997/10/19", 18.2, 18.4, 18.1
"1997/10/20", 18.2, 18.4, 18.1
"1997/10/21"," * "," * "," * "
"1997/10/22", 18.2, 18.4, 18.1
"1997/10/23", 18.4, 18.5, 18.2
"1997/10/24", 18.4, 18.5, 18.2
"1997/10/25", 18.6, 18.8, 18.5
"1997/10/26", 18.7, 18.8, 18.6
"1997/10/27", 18.1, 18.6, 17.8
"1997/10/28", 17.3, 17.8, 17.0
"1997/10/29", 17.1, 17.3, 17.0
"1997/10/30", 16.9, 17.2, 16.7
"1997/10/31", 16.8, 16.9, 16.7
"1997/11/01", 16.5, 16.8, 16.4
"1997/11/02", 16.0, 16.4, 15.8
"1997/11/03", 16.1, 16.3, 15.9
"1997/11/04", 16.4, 16.6, 16.3
"1997/11/05", 16.4, 16.6, 16.2
"1997/11/06", 16.3, 16.5, 16.1
"1997/11/07", 15.8, 16.2, 15.6
"1997/11/08", 15.5, 15.7, 15.3
"1997/11/09", 15.2, 15.5, 14.9
"1997/11/10", 15.0, 15.2, 14.8
"1997/11/11", 15.1, 15.2, 14.9
"1997/11/12", 14.9, 15.2, 14.7
"1997/11/13", 14.9, 15.1, 14.8
"1997/11/14", 15.0, 15.1, 15.0
"1997/11/15", 15.2, 15.5, 15.1
"1997/11/16", 15.4, 15.5, 15.3
"1997/11/17", 15.4, 15.5, 15.3
"1997/11/18", 15.2, 15.5, 15.1
"1997/11/19", 14.5, 15.1, 14.2
"1997/11/20", 13.9, 14.3, 13.7
"1997/11/21", 13.9, 14.2, 13.7
"1997/11/22", 14.3, 14.6, 14.1
"1997/11/23", 14.6, 14.7, 14.6
"1997/11/24", 14.1, 14.6, 13.9
"1997/11/25", 13.6, 14.0, 13.3
"1997/11/26", 13.5, 13.8, 13.4
"1997/11/27", 14.5, 15.1, 13.7
"1997/11/28", 14.7, 15.1, 14.5
"1997/11/29", 14.1, 14.5, 13.8
"1997/11/30", 14.3, 14.7, 13.8
"1997/12/01", 14.2, 14.7, 13.7
"1997/12/02", 13.4, 13.7, 13.3
"1997/12/03", 12.5, 13.3, 11.9
"1997/12/04", 11.3, 11.9, 11.0
"1997/12/05", 11.0, 11.2, 10.8
"1997/12/06", 11.0, 11.3, 10.8
"1997/12/07", 11.4, 11.8, 11.3
"1997/12/08", 12.1, 12.5, 11.8
"1997/12/09", 12.7, 12.9, 12.5
"1997/12/10", 12.6, 12.8, 12.5
"1997/12/11", 11.8, 12.5, 11.5
"1997/12/12", 11.1, 11.5, 10.9
"1997/12/13", 10.5, 10.9, 10.3
"1997/12/14", 10.1, 10.4,  9.9
"1997/12/15",  9.8, 10.1,  9.6
"1997/12/16",  9.7,  9.9,  9.4
"1997/12/17",  9.5,  9.7,  9.3
"1997/12/18",  9.7, 10.1,  9.5
"1997/12/19", 10.0, 10.2,  9.8
"1997/12/20", 10.2, 10.3, 10.0
"1997/12/21", 10.2, 10.3, 10.0
"1997/12/22",  9.8, 10.3,  9.6
"1997/12/23",  9.4,  9.6,  9.3
"1997/12/24",  9.1,  9.3,  9.0
"1997/12/25",  8.8,  9.1,  8.6
"1997/12/26",  8.6,  8.9,  8.4
"1997/12/27",  8.9,  9.1,  8.7
"1997/12/28",  8.9,  9.1,  8.7
"1997/12/29",  9.0,  9.1,  8.8
"1997/12/30",  8.7,  9.0,  8.6
"1997/12/31",  8.6,  8.7,  8.4
